Location: *
(50.5492°N, 7.7469°E)
Time: 03:31:10
(UTC+00:00)

Meteor 2-1 Rocket - Pass Details

Date: 21 October 2019
Orbit: 829 x 908 km, 81.3° (Epoch: 18 November)

Event Time Altitude Azimuth Distance (km) Brightness Sun altitude
Rises 18:17:15 0° 175° (S) 3,360 7.2 -18.4°
Reaches altitude 10° 18:19:40 10° 171° (S) 2,434 6.4 -18.8°
Maximum altitude 18:25:01 55° 95° (E) 1,008 4.2 -19.6°
Drops below altitude 10° 18:30:28 10° 20° (NNE) 2,483 6.5 -20.5°
Sets 18:32:57 0° 16° (NNE) 3,434 7.3 -20.9°
